SCOUT B-1 DEB

Satellite information

Favourite Embed

Satellite Type and Status

DEBRISIN ORBIT

Key statistics

Satellite SCOUT B-1 DEB at a glance.

Uptime

18103

Days in orbit

Revolutions

≈ 13.6

Per day

Orbit

SSO

Sun Synchronous Orbit

Inclination

99.2

Latest

Satellite identification and parameters

Extended collection of information and parameters for SCOUT B-1 DEB.

Object identification

Identified? True

Debris? True

Object name: SCOUT B-1 DEB

International designator: 1976-047C

Object number (NORAD): 8867

Object ID (CCSDS): 8867

Country: UNITED STATES OF AMERICA (US)

Current information (Y/N): Y

RCS size: SMALL

Orbital parameters

Period: 106.092 minutes

Inclination: 99.202 deg

SMA: 7423.589 km

Apoapsis: 1100.694 km

Periapsis: 990.214 km

RAAN: 178.0929 deg

Eccentricy: 0.00744114

Argument of periapsis: 54.1964 deg

Mean anomaly: 323.1595 deg

Mean motion: 13.57318791 rev/day

Mean motion (dot): 0.00000205 rev/day2

B* drag term: 0.00033719881 1/REarth

Two-line elements (TLE)

Creation date: Dec. 10, 2025, 10:40 a.m.

Reference frame: TEME

Reference center: EARTH

Epoch: Dec. 9, 2025, 6:51 p.m. UTC

TLE line 0: 0 SCOUT B-1 DEB

TLE line 1: 1 08867U 76047C 25343.78591167 .00000205 00000-0 33720-3 0 9999

TLE line 2: 2 08867 99.2020 178.0929 0074411 54.1964 323.1595 13.57318791450175

Live tracking on map

Real-time ground track for satellite SCOUT B-1 DEB.

In-orbit conjunctions

A list of the most updated potential collisions computed for object SCOUT B-1 DEB.

Target Orbit TCA Probability of collision Miss distance Type
COSMOS 1344 LEO 2025-11-17 21:51:27 0.001557574 114.0 (m) PAYLOAD

Associated space launch

Experimental military satellite

SCOUT B-1 DEB was lifted into orbit during the mission ‘Scout B-1 | Wideband’, on board a Scout B-1 space rocket.

The launch took place on May 22, 1976, 7:42 a.m. from Space Launch Complex 5.

For more information about the launch, click the button.

Launch to space Scout B-1 | Wideband
Scout B-1 | Wideband

Agency: N/A

Status: Launch Successful

Launch date: May 22, 1976, 7:42 a.m. UTC

Rocket: Scout B-1

Launch pad: Space Launch Complex 5

Location: Vandenberg SFB, CA, USA

...

Latest news about this satellite

There are no fresh news available about this satellite. Check back as we update our databases every day.


Newsletter sign-up

Weekly statistics, charts and insights to help you stay on top of the space industry.